Location: Clifton Park
(41.4873°N, 81.8024°W)
Time: 22:37:08
(UTC+00:00)

Cosmos 2297 Rocket - Pass Details

Date: 21 January 2020
Orbit: 838 x 845 km, 71.0° (Epoch: 17 February)

Event Time Altitude Azimuth Distance (km) Brightness Sun altitude
Rises 01:26:23 0° 244° (WSW) 3,385 6.2 -33.2°
Reaches altitude 10° 01:29:25 10° 260° (W) 2,456 5.4 -33.7°
Maximum altitude 01:33:37 21° 309° (NW) 1,800 4.3 -34.5°
Enters shadow 01:36:02 17° 341° (NNW) 2,042 4.3 -35.0°
